When you browse on this site, cookies collect data to enhance your experience and personalize the content and advertising you see.
Visit our Privacy Policy to learn more. By continuing to use the site, you agree to this use of cookies and data.

Meteo pe oră la Kavasaki

Astăzi, 9 Iulie, Joi

Timp Temperatura Precipitaţii Vânt Presiune Umiditate
00:00 +26°C° 1 mm 1 m/s 750 mmHg 84%
01:00 +25°C° 1.2 mm 1 m/s 750 mmHg 85%
02:00 +25°C° 1.2 mm 1 m/s 750 mmHg 86%
03:00 +25°C° 0 mm 1 m/s 750 mmHg 87%
04:00 +25°C° 1.3 mm 1 m/s 750 mmHg 87%
05:00 +25°C° 1.3 mm 1 m/s 750 mmHg 87%
06:00 +25°C° 1.3 mm 1 m/s 750 mmHg 87%
07:00 +25°C° 2.6 mm 1 m/s 751 mmHg 89%
08:00 +25°C° 2.6 mm 2 m/s 751 mmHg 90%
09:00 +26°C° 0 mm 3 m/s 751 mmHg 90%
10:00 +26°C° 2.8 mm 2 m/s 751 mmHg 89%
11:00 +26°C° 2.8 mm 2 m/s 751 mmHg 89%
12:00 +26°C° 2.8 mm 2 m/s 751 mmHg 88%
13:00 +26°C° 4.1 mm 2 m/s 751 mmHg 88%
14:00 +25°C° 4.1 mm 2 m/s 751 mmHg 88%
15:00 +25°C° 4.1 mm 2 m/s 751 mmHg 88%
16:00 +25°C° 0.9 mm 2 m/s 752 mmHg 87%
17:00 +25°C° 0.9 mm 2 m/s 752 mmHg 86%
18:00 +25°C° 0.9 mm 2 m/s 752 mmHg 84%
19:00 +25°C° 0.2 mm 2 m/s 753 mmHg 85%
20:00 +25°C° 0.2 mm 2 m/s 753 mmHg 86%
21:00 +25°C° 0.2 mm 2 m/s 753 mmHg 87%
22:00 +25°C° 0.4 mm 2 m/s 753 mmHg 88%
23:00 +25°C° 0.4 mm 1 m/s 753 mmHg 89%

Mâine, 10 Iulie, Vineri

Timp Temperatura Precipitaţii Vânt Presiune Umiditate
00:00 +25°C° 0.4 mm 1 m/s 754 mmHg 90%
01:00 +25°C° 0.8 mm 2 m/s 753 mmHg 90%
02:00 +25°C° 0.8 mm 2 m/s 753 mmHg 90%
03:00 +25°C° 0.8 mm 2 m/s 753 mmHg 89%
04:00 +24°C° 2.4 mm 2 m/s 753 mmHg 90%
05:00 +24°C° 2.4 mm 3 m/s 753 mmHg 91%
06:00 +24°C° 2.4 mm 3 m/s 753 mmHg 92%
07:00 +24°C° 2.6 mm 2 m/s 753 mmHg 92%
08:00 +24°C° 2.6 mm 2 m/s 753 mmHg 91%
09:00 +24°C° 2.6 mm 2 m/s 753 mmHg 91%
10:00 +25°C° 1.8 mm 1 m/s 754 mmHg 90%
11:00 +25°C° 1.8 mm 1 m/s 754 mmHg 90%
12:00 +25°C° 1.8 mm 1 m/s 754 mmHg 89%
13:00 +25°C° 0.9 mm 1 m/s 754 mmHg 89%
14:00 +25°C° 0.9 mm 1 m/s 753 mmHg 90%
15:00 +25°C° 0.9 mm 1 m/s 753 mmHg 90%
16:00 +25°C° 0.1 mm 1 m/s 753 mmHg 88%
17:00 +26°C° 0.1 mm 1 m/s 753 mmHg 85%
18:00 +27°C° 0.1 mm 1 m/s 753 mmHg 83%
19:00 +26°C° 0.8 mm 1 m/s 753 mmHg 84%
20:00 +26°C° 0.8 mm 1 m/s 753 mmHg 85%
21:00 +25°C° 0.8 mm 1 m/s 753 mmHg 87%
22:00 +25°C° 0.1 mm 1 m/s 752 mmHg 87%
23:00 +25°C° 0.1 mm 1 m/s 752 mmHg 87%

Poimâine, 11 Iulie, Sâmbătă

Timp Temperatura Precipitaţii Vânt Presiune Umiditate
00:00 +25°C° 0.1 mm 1 m/s 752 mmHg 87%
01:00 +25°C° 0.6 mm 1 m/s 752 mmHg 87%
02:00 +25°C° 0.6 mm 2 m/s 751 mmHg 88%
03:00 +25°C° 0.6 mm 2 m/s 751 mmHg 89%
04:00 +25°C° 0.7 mm 2 m/s 751 mmHg 90%
05:00 +25°C° 0.7 mm 1 m/s 751 mmHg 90%
06:00 +25°C° 0.7 mm 1 m/s 751 mmHg 90%
07:00 +26°C° 1 mm 2 m/s 751 mmHg 90%
08:00 +26°C° 1 mm 2 m/s 751 mmHg 90%
09:00 +26°C° 1 mm 2 m/s 751 mmHg 90%
10:00 +26°C° 1.1 mm 2 m/s 751 mmHg 90%
11:00 +26°C° 1.1 mm 2 m/s 751 mmHg 89%
12:00 +27°C° 1.1 mm 2 m/s 751 mmHg 89%
13:00 +27°C° 1.6 mm 2 m/s 751 mmHg 88%
14:00 +27°C° 1.6 mm 3 m/s 750 mmHg 86%
15:00 +27°C° 1.6 mm 3 m/s 750 mmHg 85%
16:00 +27°C° 0.8 mm 3 m/s 750 mmHg 85%
17:00 +27°C° 0.8 mm 2 m/s 750 mmHg 85%
18:00 +27°C° 0.8 mm 2 m/s 751 mmHg 85%
19:00 +26°C° 0.7 mm 2 m/s 751 mmHg 85%
20:00 +26°C° 0.7 mm 2 m/s 751 mmHg 86%
21:00 +26°C° 0.7 mm 1 m/s 751 mmHg 87%
22:00 +26°C° 2.1 mm 1 m/s 751 mmHg 88%
23:00 +26°C° 2.1 mm 1 m/s 751 mmHg 89%

12 Iulie, Duminică

Timp Temperatura Precipitaţii Vânt Presiune Umiditate
00:00 +25°C° 2.1 mm 1 m/s 751 mmHg 91%
01:00 +25°C° 1.6 mm 1 m/s 751 mmHg 91%
02:00 +25°C° 1.6 mm 1 m/s 751 mmHg 91%
03:00 +25°C° 1.6 mm 1 m/s 751 mmHg 92%
04:00 +25°C° 0.1 mm 1 m/s 751 mmHg 91%
05:00 +23°C° 0.1 mm 0 m/s 751 mmHg 90%
06:00 +24°C° 0.1 mm 0 m/s 751 mmHg 89%
07:00 +25°C° 0 mm 0 m/s 751 mmHg 84%
08:00 +26°C° 0 mm 0 m/s 751 mmHg 80%
09:00 +27°C° 0 mm 0 m/s 751 mmHg 75%
10:00 +29°C° 0.3 mm 1 m/s 751 mmHg 73%
11:00 +30°C° 0.3 mm 1 m/s 750 mmHg 71%
12:00 +31°C° 0.3 mm 2 m/s 750 mmHg 69%
13:00 +31°C° 0.6 mm 2 m/s 750 mmHg 68%
14:00 +31°C° 0.6 mm 1 m/s 750 mmHg 67%
15:00 +31°C° 0.6 mm 1 m/s 749 mmHg 66%
16:00 +30°C° 2.7 mm 1 m/s 749 mmHg 71%
17:00 +29°C° 2.7 mm 1 m/s 749 mmHg 76%
18:00 +28°C° 2.7 mm 2 m/s 750 mmHg 81%
19:00 +27°C° 2.6 mm 1 m/s 750 mmHg 84%
20:00 +27°C° 2.6 mm 1 m/s 750 mmHg 86%
21:00 +26°C° 2.6 mm 1 m/s 750 mmHg 89%
22:00 +26°C° 2.4 mm 1 m/s 750 mmHg 90%
23:00 +26°C° 2.4 mm 1 m/s 749 mmHg 92%

13 Iulie, Luni

Timp Temperatura Precipitaţii Vânt Presiune Umiditate
00:00 +25°C° 2.4 mm 1 m/s 749 mmHg 93%
01:00 +25°C° 3.7 mm 1 m/s 748 mmHg 93%
02:00 +25°C° 3.7 mm 1 m/s 748 mmHg 94%
03:00 +25°C° 3.7 mm 1 m/s 747 mmHg 94%
04:00 +25°C° 2.3 mm 1 m/s 747 mmHg 94%
05:00 +25°C° 2.3 mm 2 m/s 747 mmHg 93%
06:00 +25°C° 2.3 mm 2 m/s 747 mmHg 93%
07:00 +25°C° 3.6 mm 2 m/s 747 mmHg 93%
08:00 +25°C° 3.6 mm 3 m/s 748 mmHg 93%
09:00 +25°C° 3.6 mm 3 m/s 748 mmHg 93%
10:00 +25°C° 2.8 mm 3 m/s 748 mmHg 93%
11:00 +25°C° 2.8 mm 3 m/s 747 mmHg 92%
12:00 +25°C° 2.8 mm 3 m/s 747 mmHg 92%
13:00 +25°C° 3.6 mm 4 m/s 747 mmHg 92%
14:00 +25°C° 3.6 mm 4 m/s 746 mmHg 92%
15:00 +25°C° 3.6 mm 4 m/s 746 mmHg 92%
16:00 +25°C° 6.8 mm 4 m/s 745 mmHg 92%
17:00 +25°C° 6.8 mm 4 m/s 745 mmHg 92%
18:00 +26°C° 6.8 mm 4 m/s 745 mmHg 91%
19:00 +26°C° 3.8 mm 4 m/s 745 mmHg 92%
20:00 +26°C° 3.8 mm 4 m/s 745 mmHg 92%
21:00 +26°C° 3.8 mm 4 m/s 745 mmHg 93%
22:00 +26°C° 5.8 mm 4 m/s 744 mmHg 93%
23:00 +26°C° 5.8 mm 3 m/s 744 mmHg 93%

14 Iulie, Marţi

Timp Temperatura Precipitaţii Vânt Presiune Umiditate
00:00 +25°C° 5.8 mm 2 m/s 744 mmHg 94%
01:00 +26°C° 1 mm 2 m/s 744 mmHg 94%
02:00 +26°C° 1 mm 2 m/s 744 mmHg 94%
03:00 +26°C° 1 mm 2 m/s 743 mmHg 95%
04:00 +26°C° 4.8 mm 2 m/s 743 mmHg 96%
05:00 +26°C° 4.8 mm 2 m/s 743 mmHg 96%
06:00 +26°C° 4.8 mm 2 m/s 743 mmHg 97%
07:00 +26°C° 10.3 mm 2 m/s 743 mmHg 97%
08:00 +26°C° 10.3 mm 1 m/s 743 mmHg 97%
09:00 +26°C° 10.3 mm 1 m/s 743 mmHg 97%
10:00 +27°C° 1.1 mm 1 m/s 743 mmHg 88%
11:00 +29°C° 1.1 mm 2 m/s 743 mmHg 80%
12:00 +30°C° 1.1 mm 2 m/s 743 mmHg 71%
13:00 +31°C° 0.6 mm 2 m/s 743 mmHg 69%
14:00 +31°C° 0.6 mm 2 m/s 743 mmHg 67%
15:00 +31°C° 0.6 mm 2 m/s 743 mmHg 65%
16:00 +30°C° 0.5 mm 2 m/s 743 mmHg 67%
17:00 +30°C° 0.5 mm 2 m/s 743 mmHg 69%
18:00 +29°C° 0.5 mm 1 m/s 743 mmHg 70%
19:00 +28°C° 0.6 mm 1 m/s 743 mmHg 73%
20:00 +27°C° 0.6 mm 1 m/s 744 mmHg 76%
21:00 +26°C° 0.6 mm 1 m/s 744 mmHg 78%
22:00 +26°C° 0.3 mm 1 m/s 744 mmHg 79%
23:00 +25°C° 0.3 mm 1 m/s 744 mmHg 80%
Arată mai mult